Year,Month,Day,Hour,Minute,Value (Times are PST for temperature in C)
2016,08,11,00,00,16.10
2016,08,11,00,01,16.10
2016,08,11,00,02,16.10
2016,08,11,00,03,16.10
2016,08,11,00,04,16.10
2016,08,11,00,05,16.10
2016,08,11,00,06,16.10
2016,08,11,00,07,16.10
2016,08,11,00,08,16.10
2016,08,11,00,09,16.10
2016,08,11,00,10,16.10
2016,08,11,00,11,15.90
2016,08,11,00,12,15.90
2016,08,11,00,13,15.90
2016,08,11,00,14,15.90
2016,08,11,00,15,15.90
2016,08,11,00,16,15.90
2016,08,11,00,17,15.90
2016,08,11,00,18,15.90
2016,08,11,00,19,15.80
2016,08,11,00,20,15.80
2016,08,11,00,21,15.80
2016,08,11,00,22,15.80
2016,08,11,00,23,15.80
2016,08,11,00,24,15.90
2016,08,11,00,25,15.90
2016,08,11,00,26,15.90
2016,08,11,00,27,15.90
2016,08,11,00,28,15.90
2016,08,11,00,29,15.90
2016,08,11,00,30,15.90
2016,08,11,00,31,15.90
2016,08,11,00,32,16.00
2016,08,11,00,33,16.10
2016,08,11,00,34,16.10
2016,08,11,00,35,16.10
2016,08,11,00,36,16.10
2016,08,11,00,37,16.10
2016,08,11,00,38,16.10
2016,08,11,00,39,16.10
2016,08,11,00,40,16.10
2016,08,11,00,41,16.10
2016,08,11,00,42,16.10
2016,08,11,00,43,16.20
2016,08,11,00,44,16.20
2016,08,11,00,45,16.20
2016,08,11,00,46,16.20
2016,08,11,00,47,16.30
2016,08,11,00,48,16.30
2016,08,11,00,49,16.30
2016,08,11,00,50,16.40
2016,08,11,00,51,16.40
2016,08,11,00,52,16.40
2016,08,11,00,53,16.40
2016,08,11,00,54,16.40
2016,08,11,00,55,16.40
2016,08,11,00,56,16.40
2016,08,11,00,57,16.40
2016,08,11,00,58,16.40
2016,08,11,00,59,16.40
2016,08,11,01,00,16.60
2016,08,11,01,01,16.60
2016,08,11,01,02,16.60
2016,08,11,01,03,16.60
2016,08,11,01,04,16.60
2016,08,11,01,05,16.60
2016,08,11,01,06,16.60
2016,08,11,01,07,16.70
2016,08,11,01,08,16.70
2016,08,11,01,09,16.70
2016,08,11,01,10,16.70
2016,08,11,01,11,16.70
2016,08,11,01,12,16.70
2016,08,11,01,13,16.70
2016,08,11,01,14,16.70
2016,08,11,01,15,16.70
2016,08,11,01,16,16.70
2016,08,11,01,17,16.70
2016,08,11,01,18,16.70
2016,08,11,01,19,16.70
2016,08,11,01,20,16.70
2016,08,11,01,21,16.70
2016,08,11,01,22,16.70
2016,08,11,01,23,16.70
2016,08,11,01,24,16.70
2016,08,11,01,25,16.70
2016,08,11,01,26,16.70
2016,08,11,01,27,16.70
2016,08,11,01,28,16.70
2016,08,11,01,29,16.70
2016,08,11,01,30,16.70
2016,08,11,01,31,16.70
2016,08,11,01,32,16.70
2016,08,11,01,33,16.70
2016,08,11,01,34,16.70
2016,08,11,01,35,16.60
2016,08,11,01,36,16.60
2016,08,11,01,37,16.60
2016,08,11,01,38,16.60
2016,08,11,01,39,16.50
2016,08,11,01,40,16.40
2016,08,11,01,41,16.40
2016,08,11,01,42,16.40
2016,08,11,01,43,16.40
2016,08,11,01,44,16.40
2016,08,11,01,45,16.40
2016,08,11,01,46,16.30
2016,08,11,01,47,16.30
2016,08,11,01,48,16.30
2016,08,11,01,49,16.30
2016,08,11,01,50,16.30
2016,08,11,01,51,16.30
2016,08,11,01,52,16.20
2016,08,11,01,53,16.20
2016,08,11,01,54,16.20
2016,08,11,01,55,16.20
2016,08,11,01,56,16.20
2016,08,11,01,57,16.20
2016,08,11,01,58,16.20
2016,08,11,01,59,16.20
2016,08,11,02,00,16.20
2016,08,11,02,01,16.30
2016,08,11,02,02,16.30
2016,08,11,02,03,16.30
2016,08,11,02,04,16.30
2016,08,11,02,05,16.30
2016,08,11,02,06,16.30
2016,08,11,02,07,16.30
2016,08,11,02,08,16.20
2016,08,11,02,09,16.20
2016,08,11,02,10,16.20
2016,08,11,02,11,16.20
2016,08,11,02,12,16.20
2016,08,11,02,13,16.20
2016,08,11,02,14,16.20
2016,08,11,02,15,16.20
2016,08,11,02,16,16.20
2016,08,11,02,17,16.20
2016,08,11,02,18,16.20
2016,08,11,02,19,16.10
2016,08,11,02,20,16.10
2016,08,11,02,21,16.10
2016,08,11,02,22,16.10
2016,08,11,02,23,16.10
2016,08,11,02,24,16.00
2016,08,11,02,25,15.90
2016,08,11,02,26,15.90
2016,08,11,02,27,15.90
2016,08,11,02,28,15.90
2016,08,11,02,29,15.80
2016,08,11,02,30,15.80
2016,08,11,02,31,15.80
2016,08,11,02,32,15.80
2016,08,11,02,33,15.80
2016,08,11,02,34,15.80
2016,08,11,02,35,15.80
2016,08,11,02,36,15.80
2016,08,11,02,37,15.80
2016,08,11,02,38,15.80
2016,08,11,02,39,15.80
2016,08,11,02,40,15.80
2016,08,11,02,41,15.80
2016,08,11,02,42,15.80
2016,08,11,02,43,15.80
2016,08,11,02,44,15.80
2016,08,11,02,45,15.80
2016,08,11,02,46,15.80
2016,08,11,02,47,15.80
2016,08,11,02,48,15.80
2016,08,11,02,49,15.80
2016,08,11,02,50,15.80
2016,08,11,02,51,15.80
2016,08,11,02,52,15.80
2016,08,11,02,53,15.80
2016,08,11,02,54,15.70
2016,08,11,02,55,15.70
2016,08,11,02,56,15.70
2016,08,11,02,57,15.60
2016,08,11,02,58,15.60
2016,08,11,02,59,15.60
2016,08,11,03,00,15.60
2016,08,11,03,01,15.50
2016,08,11,03,02,15.50
2016,08,11,03,03,15.50
2016,08,11,03,04,15.50
2016,08,11,03,05,15.50
2016,08,11,03,06,15.40
2016,08,11,03,07,15.40
2016,08,11,03,08,15.40
2016,08,11,03,09,15.40
2016,08,11,03,10,15.40
2016,08,11,03,11,15.30
2016,08,11,03,12,15.30
2016,08,11,03,13,15.30
2016,08,11,03,14,15.30
2016,08,11,03,15,15.30
2016,08,11,03,16,15.30
2016,08,11,03,17,15.30
2016,08,11,03,18,15.20
2016,08,11,03,19,15.20
2016,08,11,03,20,15.20
2016,08,11,03,21,15.10
2016,08,11,03,22,15.10
2016,08,11,03,23,15.10
2016,08,11,03,24,15.10
2016,08,11,03,25,15.00
2016,08,11,03,26,15.00
2016,08,11,03,27,15.00
2016,08,11,03,28,14.90
2016,08,11,03,29,14.90
2016,08,11,03,30,14.90
2016,08,11,03,31,14.80
2016,08,11,03,32,14.80
2016,08,11,03,33,14.80
2016,08,11,03,34,14.80
2016,08,11,03,35,14.80
2016,08,11,03,36,14.80
2016,08,11,03,37,14.70
2016,08,11,03,38,14.70
2016,08,11,03,39,14.70
2016,08,11,03,40,14.70
2016,08,11,03,41,14.70
2016,08,11,03,42,14.60
2016,08,11,03,43,14.60
2016,08,11,03,44,14.60
2016,08,11,03,45,14.60
2016,08,11,03,46,14.60
2016,08,11,03,47,14.60
2016,08,11,03,48,14.50
2016,08,11,03,49,14.50
2016,08,11,03,50,14.50
2016,08,11,03,51,14.50
2016,08,11,03,52,14.50
2016,08,11,03,53,14.50
2016,08,11,03,54,14.50
2016,08,11,03,55,14.50
2016,08,11,03,56,14.50
2016,08,11,03,57,14.40
2016,08,11,03,58,14.40
2016,08,11,03,59,14.40
2016,08,11,04,00,14.40
2016,08,11,04,01,14.40
2016,08,11,04,02,14.40
2016,08,11,04,03,14.40
2016,08,11,04,04,14.40
2016,08,11,04,05,14.40
2016,08,11,04,06,14.40
2016,08,11,04,07,14.40
2016,08,11,04,08,14.40
2016,08,11,04,09,14.40
2016,08,11,04,10,14.40
2016,08,11,04,11,14.40
2016,08,11,04,12,14.40
2016,08,11,04,13,14.40
2016,08,11,04,14,14.40
2016,08,11,04,15,14.40
2016,08,11,04,16,14.40
2016,08,11,04,17,14.40
2016,08,11,04,18,14.40
2016,08,11,04,19,14.40
2016,08,11,04,20,14.40
2016,08,11,04,21,14.40
2016,08,11,04,22,14.40
2016,08,11,04,23,14.40
2016,08,11,04,24,14.40
2016,08,11,04,25,14.30
2016,08,11,04,26,14.30
2016,08,11,04,27,14.30
2016,08,11,04,28,14.30
2016,08,11,04,29,14.30
2016,08,11,04,30,14.30
2016,08,11,04,31,14.20
2016,08,11,04,32,14.20
2016,08,11,04,33,14.20
2016,08,11,04,34,14.20
2016,08,11,04,35,14.20
2016,08,11,04,36,14.20
2016,08,11,04,37,14.10
2016,08,11,04,38,14.10
2016,08,11,04,39,14.10
2016,08,11,04,40,14.10
2016,08,11,04,41,14.00
2016,08,11,04,42,14.00
2016,08,11,04,43,14.00
2016,08,11,04,44,14.00
2016,08,11,04,45,14.00
2016,08,11,04,46,14.00
2016,08,11,04,47,13.90
2016,08,11,04,48,13.90
2016,08,11,04,49,13.90
2016,08,11,04,50,13.90
2016,08,11,04,51,13.90
2016,08,11,04,52,13.90
2016,08,11,04,53,13.80
2016,08,11,04,54,13.80
2016,08,11,04,55,13.80
2016,08,11,04,56,13.80
2016,08,11,04,57,13.80
2016,08,11,04,58,13.80
2016,08,11,04,59,13.80
2016,08,11,05,00,13.80
2016,08,11,05,01,13.80
2016,08,11,05,02,13.80
2016,08,11,05,03,13.80
2016,08,11,05,04,13.80
2016,08,11,05,05,13.80
2016,08,11,05,06,13.80
2016,08,11,05,07,13.80
2016,08,11,05,08,13.80
2016,08,11,05,09,13.70
2016,08,11,05,10,13.70
2016,08,11,05,11,13.70
2016,08,11,05,12,13.70
2016,08,11,05,13,13.70
2016,08,11,05,14,13.70
2016,08,11,05,15,13.70
2016,08,11,05,16,13.70
2016,08,11,05,17,13.70
2016,08,11,05,18,13.70
2016,08,11,05,19,13.70
2016,08,11,05,20,13.70
2016,08,11,05,21,13.70
2016,08,11,05,22,13.60
2016,08,11,05,23,13.60
2016,08,11,05,24,13.60
2016,08,11,05,25,13.60
2016,08,11,05,26,13.60
2016,08,11,05,27,13.60
2016,08,11,05,28,13.60
2016,08,11,05,29,13.60
2016,08,11,05,30,13.60
2016,08,11,05,31,13.60
2016,08,11,05,32,13.60
2016,08,11,05,33,13.60
2016,08,11,05,34,13.60
2016,08,11,05,35,13.50
2016,08,11,05,36,13.50
2016,08,11,05,37,13.50
2016,08,11,05,38,13.50
2016,08,11,05,39,13.50
2016,08,11,05,40,13.50
2016,08,11,05,41,13.50
2016,08,11,05,42,13.50
2016,08,11,05,43,13.50
2016,08,11,05,44,13.50
2016,08,11,05,45,13.50
2016,08,11,05,46,13.50
2016,08,11,05,47,13.50
2016,08,11,05,48,13.50
2016,08,11,05,49,13.50
2016,08,11,05,50,13.50
2016,08,11,05,51,13.50
2016,08,11,05,52,13.40
2016,08,11,05,53,13.40
2016,08,11,05,54,13.40
2016,08,11,05,55,13.40
2016,08,11,05,56,13.40
2016,08,11,05,57,13.40
2016,08,11,05,58,13.40
2016,08,11,05,59,13.40
2016,08,11,06,00,13.40
2016,08,11,06,01,13.40
2016,08,11,06,02,13.40
2016,08,11,06,03,13.30
2016,08,11,06,04,13.30
2016,08,11,06,05,13.30
2016,08,11,06,06,13.30
2016,08,11,06,07,13.30
2016,08,11,06,08,13.30
2016,08,11,06,09,13.30
2016,08,11,06,10,13.30
2016,08,11,06,11,13.30
2016,08,11,06,12,13.30
2016,08,11,06,13,13.30
2016,08,11,06,14,13.30
2016,08,11,06,15,13.30
2016,08,11,06,16,13.30
2016,08,11,06,17,13.30
2016,08,11,06,18,13.30
2016,08,11,06,19,13.40
2016,08,11,06,20,13.40
2016,08,11,06,21,13.40
2016,08,11,06,22,13.40
2016,08,11,06,23,13.40
2016,08,11,06,24,13.40
2016,08,11,06,25,13.40
2016,08,11,06,26,13.40
2016,08,11,06,27,13.40
2016,08,11,06,28,13.40
2016,08,11,06,29,13.40
2016,08,11,06,30,13.40
2016,08,11,06,31,13.40
2016,08,11,06,32,13.40
2016,08,11,06,33,13.50
2016,08,11,06,34,13.50
2016,08,11,06,35,13.60
2016,08,11,06,36,13.60
2016,08,11,06,37,13.70
2016,08,11,06,38,13.70
2016,08,11,06,39,13.80
2016,08,11,06,40,13.80
2016,08,11,06,41,13.90
2016,08,11,06,42,13.90
2016,08,11,06,43,14.00
2016,08,11,06,44,14.00
2016,08,11,06,45,14.10
2016,08,11,06,46,14.20
2016,08,11,06,47,14.30
2016,08,11,06,48,14.40
2016,08,11,06,49,14.40
2016,08,11,06,50,14.50
2016,08,11,06,51,14.60
2016,08,11,06,52,14.60
2016,08,11,06,53,14.70
2016,08,11,06,54,14.70
2016,08,11,06,55,14.80
2016,08,11,06,56,14.80
2016,08,11,06,57,14.80
2016,08,11,06,58,14.80
2016,08,11,06,59,14.80
2016,08,11,07,00,14.80
2016,08,11,07,01,14.80
2016,08,11,07,02,14.80
2016,08,11,07,03,14.90
2016,08,11,07,04,14.90
2016,08,11,07,05,15.00
2016,08,11,07,06,15.00
2016,08,11,07,07,15.10
2016,08,11,07,08,15.20
2016,08,11,07,09,15.30
2016,08,11,07,10,15.30
2016,08,11,07,11,15.40
2016,08,11,07,12,15.40
2016,08,11,07,13,15.50
2016,08,11,07,14,15.50
2016,08,11,07,15,15.60
2016,08,11,07,16,15.70
2016,08,11,07,17,15.80
2016,08,11,07,18,15.80
2016,08,11,07,19,16.00
2016,08,11,07,20,16.10
2016,08,11,07,21,16.20
2016,08,11,07,22,16.30
2016,08,11,07,23,16.40
2016,08,11,07,24,16.50
2016,08,11,07,25,16.60
2016,08,11,07,26,16.70
2016,08,11,07,27,16.70
2016,08,11,07,28,16.80
2016,08,11,07,29,16.90
2016,08,11,07,30,16.90
2016,08,11,07,31,17.00
2016,08,11,07,32,17.10
2016,08,11,07,33,17.10
2016,08,11,07,34,17.20
2016,08,11,07,35,17.20
2016,08,11,07,36,17.20
2016,08,11,07,37,17.30
2016,08,11,07,38,17.30
2016,08,11,07,39,17.30
2016,08,11,07,40,17.30
2016,08,11,07,41,17.30
2016,08,11,07,42,17.40
2016,08,11,07,43,17.40
2016,08,11,07,44,17.40
2016,08,11,07,45,17.50
2016,08,11,07,46,17.50
2016,08,11,07,47,17.50
2016,08,11,07,48,17.60
2016,08,11,07,49,17.70
2016,08,11,07,50,17.80
2016,08,11,07,51,17.90
2016,08,11,07,52,17.90
2016,08,11,07,53,18.10
2016,08,11,07,54,18.10
2016,08,11,07,55,18.20
2016,08,11,07,56,18.20
2016,08,11,07,57,18.20
2016,08,11,07,58,18.10
2016,08,11,07,59,18.10
2016,08,11,08,00,18.10
2016,08,11,08,01,18.10
2016,08,11,08,02,18.00
2016,08,11,08,03,17.90
2016,08,11,08,04,17.90
2016,08,11,08,05,17.90
2016,08,11,08,06,17.90
2016,08,11,08,07,17.90
2016,08,11,08,08,17.90
2016,08,11,08,09,17.90
2016,08,11,08,10,17.90
2016,08,11,08,11,17.90
2016,08,11,08,12,17.90
2016,08,11,08,13,17.90
2016,08,11,08,14,18.00
2016,08,11,08,15,18.10
2016,08,11,08,16,18.20
2016,08,11,08,17,18.20
2016,08,11,08,18,18.30
2016,08,11,08,19,18.40
2016,08,11,08,20,18.50
2016,08,11,08,21,18.60
2016,08,11,08,22,18.70
2016,08,11,08,23,18.80
2016,08,11,08,24,18.90
2016,08,11,08,25,18.90
2016,08,11,08,26,19.10
2016,08,11,08,27,19.10
2016,08,11,08,28,19.20
2016,08,11,08,29,19.30
2016,08,11,08,30,19.30
2016,08,11,08,31,19.30
2016,08,11,08,32,19.40
2016,08,11,08,33,19.40
2016,08,11,08,34,19.40
2016,08,11,08,35,19.40
2016,08,11,08,36,19.40
2016,08,11,08,37,19.50
2016,08,11,08,38,19.50
2016,08,11,08,39,19.50
2016,08,11,08,40,19.50
2016,08,11,08,41,19.50
2016,08,11,08,42,19.50
2016,08,11,08,43,19.50
2016,08,11,08,44,19.50
2016,08,11,08,45,19.50
2016,08,11,08,46,19.60
2016,08,11,08,47,19.60
2016,08,11,08,48,19.70
2016,08,11,08,49,19.80
2016,08,11,08,50,19.80
2016,08,11,08,51,19.80
2016,08,11,08,52,19.90
2016,08,11,08,53,19.90
2016,08,11,08,54,19.90
2016,08,11,08,55,19.80
2016,08,11,08,56,19.80
2016,08,11,08,57,19.90
2016,08,11,08,58,19.90
2016,08,11,08,59,20.10
2016,08,11,09,00,20.10
2016,08,11,09,01,20.20
2016,08,11,09,02,20.20
2016,08,11,09,03,20.20
2016,08,11,09,04,20.20
2016,08,11,09,05,20.20
2016,08,11,09,06,20.30
2016,08,11,09,07,20.30
2016,08,11,09,08,20.40
2016,08,11,09,09,20.50
2016,08,11,09,10,20.50
2016,08,11,09,11,20.60
2016,08,11,09,12,20.60
2016,08,11,09,13,20.60
2016,08,11,09,14,20.60
2016,08,11,09,15,20.60
2016,08,11,09,16,20.70
2016,08,11,09,17,20.80
2016,08,11,09,18,20.80
2016,08,11,09,19,20.80
2016,08,11,09,20,20.80
2016,08,11,09,21,20.90
2016,08,11,09,22,20.90
2016,08,11,09,23,21.00
2016,08,11,09,24,21.00
2016,08,11,09,25,21.00
2016,08,11,09,26,21.00
2016,08,11,09,27,21.10
2016,08,11,09,28,21.10
2016,08,11,09,29,21.20
2016,08,11,09,30,21.20
2016,08,11,09,31,21.20
2016,08,11,09,32,21.20
2016,08,11,09,33,21.10
2016,08,11,09,34,21.10
2016,08,11,09,35,21.10
2016,08,11,09,36,21.10
2016,08,11,09,37,21.00
2016,08,11,09,38,21.00
2016,08,11,09,39,21.00
2016,08,11,09,40,21.00
2016,08,11,09,41,21.00
2016,08,11,09,42,21.00
2016,08,11,09,43,21.00
2016,08,11,09,44,21.00
2016,08,11,09,45,21.00
2016,08,11,09,46,20.90
2016,08,11,09,47,20.90
2016,08,11,09,48,20.90
2016,08,11,09,49,20.80
2016,08,11,09,50,20.80
2016,08,11,09,51,20.80
2016,08,11,09,52,20.70
2016,08,11,09,53,20.70
2016,08,11,09,54,20.70
2016,08,11,09,55,20.70
2016,08,11,09,56,20.80
2016,08,11,09,57,20.80
2016,08,11,09,58,20.80
2016,08,11,09,59,20.80
2016,08,11,10,00,20.80
2016,08,11,10,01,20.80
2016,08,11,10,02,20.90
2016,08,11,10,03,20.90
2016,08,11,10,04,20.90
2016,08,11,10,05,20.90
2016,08,11,10,06,20.90
2016,08,11,10,07,21.00
2016,08,11,10,08,21.00
2016,08,11,10,09,21.00
2016,08,11,10,10,21.00
2016,08,11,10,11,20.90
2016,08,11,10,12,20.90
2016,08,11,10,13,20.90
2016,08,11,10,14,21.00
2016,08,11,10,15,21.00
2016,08,11,10,16,21.00
2016,08,11,10,17,21.10
2016,08,11,10,18,21.10
2016,08,11,10,19,21.10
2016,08,11,10,20,21.10
2016,08,11,10,21,21.20
2016,08,11,10,22,21.10
2016,08,11,10,23,21.10
2016,08,11,10,24,21.10
2016,08,11,10,25,21.10
2016,08,11,10,26,21.10
2016,08,11,10,27,21.10
2016,08,11,10,28,21.10
2016,08,11,10,29,21.10
2016,08,11,10,30,21.20
2016,08,11,10,31,21.20
2016,08,11,10,32,21.20
2016,08,11,10,33,21.20
2016,08,11,10,34,21.20
2016,08,11,10,35,21.20
2016,08,11,10,36,21.20
2016,08,11,10,37,21.20
2016,08,11,10,38,21.30
2016,08,11,10,39,21.30
2016,08,11,10,40,21.30
2016,08,11,10,41,21.40
2016,08,11,10,42,21.40
2016,08,11,10,43,21.40
2016,08,11,10,44,21.30
2016,08,11,10,45,21.30
2016,08,11,10,46,21.30
2016,08,11,10,47,21.30
2016,08,11,10,48,21.30
2016,08,11,10,49,21.30
2016,08,11,10,50,21.30
2016,08,11,10,51,21.30
2016,08,11,10,52,21.30
2016,08,11,10,53,21.30
2016,08,11,10,54,21.30
2016,08,11,10,55,21.30
2016,08,11,10,56,21.30
2016,08,11,10,57,21.30
2016,08,11,10,58,21.30
2016,08,11,10,59,21.40
2016,08,11,11,00,21.40
2016,08,11,11,01,21.50
2016,08,11,11,02,21.60
2016,08,11,11,03,21.60
2016,08,11,11,04,21.60
2016,08,11,11,05,21.60
2016,08,11,11,06,21.60
2016,08,11,11,07,21.70
2016,08,11,11,08,21.70
2016,08,11,11,09,21.70
2016,08,11,11,10,21.80
2016,08,11,11,11,21.80
2016,08,11,11,12,21.80
2016,08,11,11,13,21.90
2016,08,11,11,14,21.90
2016,08,11,11,15,21.90
2016,08,11,11,16,21.90
2016,08,11,11,17,21.90
2016,08,11,11,18,21.80
2016,08,11,11,19,21.90
2016,08,11,11,20,22.00
2016,08,11,11,21,22.10
2016,08,11,11,22,22.20
2016,08,11,11,23,22.20
2016,08,11,11,24,22.30
2016,08,11,11,25,22.30
2016,08,11,11,26,22.30
2016,08,11,11,27,22.40
2016,08,11,11,28,22.40
2016,08,11,11,29,22.40
2016,08,11,11,30,22.40
2016,08,11,11,31,22.40
2016,08,11,11,32,22.40
2016,08,11,11,33,22.40
2016,08,11,11,34,22.40
2016,08,11,11,35,22.40
2016,08,11,11,36,22.40
2016,08,11,11,37,22.30
2016,08,11,11,38,22.40
2016,08,11,11,39,22.30
2016,08,11,11,40,22.40
2016,08,11,11,41,22.30
2016,08,11,11,42,22.30
2016,08,11,11,43,22.30
2016,08,11,11,44,22.30
2016,08,11,11,45,22.30
2016,08,11,11,46,22.40
2016,08,11,11,47,22.40
2016,08,11,11,48,22.50
2016,08,11,11,49,22.60
2016,08,11,11,50,22.60
2016,08,11,11,51,22.60
2016,08,11,11,52,22.70
2016,08,11,11,53,22.80
2016,08,11,11,54,22.80
2016,08,11,11,55,22.80
2016,08,11,11,56,22.70
2016,08,11,11,57,22.70
2016,08,11,11,58,22.70
2016,08,11,11,59,22.70
2016,08,11,12,00,22.70
2016,08,11,12,01,22.70
2016,08,11,12,02,22.80
2016,08,11,12,03,22.80
2016,08,11,12,04,22.80
2016,08,11,12,05,22.80
2016,08,11,12,06,22.80
2016,08,11,12,07,22.80
2016,08,11,12,08,22.80
2016,08,11,12,09,22.80
2016,08,11,12,10,22.80
2016,08,11,12,11,22.80
2016,08,11,12,12,22.70
2016,08,11,12,13,22.70
2016,08,11,12,14,22.70
2016,08,11,12,15,22.70
2016,08,11,12,16,22.70
2016,08,11,12,17,22.80
2016,08,11,12,18,22.80
2016,08,11,12,19,22.80
2016,08,11,12,20,22.80
2016,08,11,12,21,22.80
2016,08,11,12,22,22.90
2016,08,11,12,23,22.80
2016,08,11,12,24,22.80
2016,08,11,12,25,22.90
2016,08,11,12,26,22.90
2016,08,11,12,27,22.90
2016,08,11,12,28,22.90
2016,08,11,12,29,22.90
2016,08,11,12,30,23.00
2016,08,11,12,31,23.10
2016,08,11,12,32,23.20
2016,08,11,12,33,23.20
2016,08,11,12,34,23.30
2016,08,11,12,35,23.30
2016,08,11,12,36,23.30
2016,08,11,12,37,23.40
2016,08,11,12,38,23.40
2016,08,11,12,39,23.50
2016,08,11,12,40,23.60
2016,08,11,12,41,23.60
2016,08,11,12,42,23.60
2016,08,11,12,43,23.60
2016,08,11,12,44,23.60
2016,08,11,12,45,23.60
2016,08,11,12,46,23.60
2016,08,11,12,47,23.50
2016,08,11,12,48,23.40
2016,08,11,12,49,23.40
2016,08,11,12,50,23.40
2016,08,11,12,51,23.40
2016,08,11,12,52,23.40
2016,08,11,12,53,23.40
2016,08,11,12,54,23.40
2016,08,11,12,55,23.40
2016,08,11,12,56,23.40
2016,08,11,12,57,23.50
2016,08,11,12,58,23.60
2016,08,11,12,59,23.60
2016,08,11,13,00,23.60
2016,08,11,13,01,23.60
2016,08,11,13,02,23.60
2016,08,11,13,03,23.60
2016,08,11,13,04,23.60
2016,08,11,13,05,23.60
2016,08,11,13,06,23.50
2016,08,11,13,07,23.40
2016,08,11,13,08,23.40
2016,08,11,13,09,23.40
2016,08,11,13,10,23.30
2016,08,11,13,11,23.30
2016,08,11,13,12,23.30
2016,08,11,13,13,23.30
2016,08,11,13,14,23.40
2016,08,11,13,15,23.50
2016,08,11,13,16,23.60
2016,08,11,13,17,23.60
2016,08,11,13,18,23.70
2016,08,11,13,19,23.70
2016,08,11,13,20,23.70
2016,08,11,13,21,23.70
2016,08,11,13,22,23.70
2016,08,11,13,23,23.70
2016,08,11,13,24,23.60
2016,08,11,13,25,23.60
2016,08,11,13,26,23.60
2016,08,11,13,27,23.60
2016,08,11,13,28,23.70
2016,08,11,13,29,23.70
2016,08,11,13,30,23.70
2016,08,11,13,31,23.80
2016,08,11,13,32,23.80
2016,08,11,13,33,23.90
2016,08,11,13,34,24.00
2016,08,11,13,35,24.10
2016,08,11,13,36,24.10
2016,08,11,13,37,24.20
2016,08,11,13,38,24.20
2016,08,11,13,39,24.30
2016,08,11,13,40,24.40
2016,08,11,13,41,24.40
2016,08,11,13,42,24.40
2016,08,11,13,43,24.40
2016,08,11,13,44,24.40
2016,08,11,13,45,24.40
2016,08,11,13,46,24.50
2016,08,11,13,47,24.50
2016,08,11,13,48,24.60
2016,08,11,13,49,24.60
2016,08,11,13,50,24.70
2016,08,11,13,51,24.70
2016,08,11,13,52,24.70
2016,08,11,13,53,24.70
2016,08,11,13,54,24.70
2016,08,11,13,55,24.70
2016,08,11,13,56,24.70
2016,08,11,13,57,24.60
2016,08,11,13,58,24.60
2016,08,11,13,59,24.60
2016,08,11,14,00,24.60
2016,08,11,14,01,24.60
2016,08,11,14,02,24.60
2016,08,11,14,03,24.50
2016,08,11,14,04,24.50
2016,08,11,14,05,24.50
2016,08,11,14,06,24.60
2016,08,11,14,07,24.60
2016,08,11,14,08,24.60
2016,08,11,14,09,24.60
2016,08,11,14,10,24.50
2016,08,11,14,11,24.40
2016,08,11,14,12,24.40
2016,08,11,14,13,24.30
2016,08,11,14,14,24.30
2016,08,11,14,15,24.30
2016,08,11,14,16,24.30
2016,08,11,14,17,24.40
2016,08,11,14,18,24.40
2016,08,11,14,19,24.50
2016,08,11,14,20,24.50
2016,08,11,14,21,24.40
2016,08,11,14,22,24.40
2016,08,11,14,23,24.50
2016,08,11,14,24,24.50
2016,08,11,14,25,24.60
2016,08,11,14,26,24.70
2016,08,11,14,27,24.80
2016,08,11,14,28,24.90
2016,08,11,14,29,25.00
2016,08,11,14,30,25.00
2016,08,11,14,31,25.00
2016,08,11,14,32,24.90
2016,08,11,14,33,24.80
2016,08,11,14,34,24.80
2016,08,11,14,35,24.70
2016,08,11,14,36,24.70
2016,08,11,14,37,24.70
2016,08,11,14,38,24.70
2016,08,11,14,39,24.70
2016,08,11,14,40,24.70
2016,08,11,14,41,24.60
2016,08,11,14,42,24.50
2016,08,11,14,43,24.50
2016,08,11,14,44,24.40
2016,08,11,14,45,24.40
2016,08,11,14,46,24.40
2016,08,11,14,47,24.40
2016,08,11,14,48,24.20
2016,08,11,14,49,24.10
2016,08,11,14,50,24.10
2016,08,11,14,51,24.10
2016,08,11,14,52,24.20
2016,08,11,14,53,24.20
2016,08,11,14,54,24.10
2016,08,11,14,55,24.00
2016,08,11,14,56,23.80
2016,08,11,14,57,23.70
2016,08,11,14,58,23.70
2016,08,11,14,59,23.70
2016,08,11,15,00,23.80
2016,08,11,15,01,23.90
2016,08,11,15,02,24.10
2016,08,11,15,03,24.10
2016,08,11,15,04,24.10
2016,08,11,15,05,24.10
2016,08,11,15,06,24.10
2016,08,11,15,07,24.10
2016,08,11,15,08,24.10
2016,08,11,15,09,24.10
2016,08,11,15,10,24.20
2016,08,11,15,11,24.20
2016,08,11,15,12,24.30
2016,08,11,15,13,24.40
2016,08,11,15,14,24.50
2016,08,11,15,15,24.50
2016,08,11,15,16,24.40
2016,08,11,15,17,24.40
2016,08,11,15,18,24.50
2016,08,11,15,19,24.50
2016,08,11,15,20,24.30
2016,08,11,15,21,24.40
2016,08,11,15,22,24.50
2016,08,11,15,23,24.70
2016,08,11,15,24,24.70
2016,08,11,15,25,24.70
2016,08,11,15,26,24.70
2016,08,11,15,27,24.50
2016,08,11,15,28,24.50
2016,08,11,15,29,24.40
2016,08,11,15,30,24.40
2016,08,11,15,31,24.50
2016,08,11,15,32,24.60
2016,08,11,15,33,24.60
2016,08,11,15,34,24.60
2016,08,11,15,35,24.70
2016,08,11,15,36,24.80
2016,08,11,15,37,24.90
2016,08,11,15,38,24.90
2016,08,11,15,39,25.00
2016,08,11,15,40,25.00
2016,08,11,15,41,24.90
2016,08,11,15,42,24.80
2016,08,11,15,43,24.60
2016,08,11,15,44,24.60
2016,08,11,15,45,24.50
2016,08,11,15,46,24.50
2016,08,11,15,47,24.50
2016,08,11,15,48,24.50
2016,08,11,15,49,24.60
2016,08,11,15,50,24.70
2016,08,11,15,51,24.80
2016,08,11,15,52,24.90
2016,08,11,15,53,25.00
2016,08,11,15,54,25.00
2016,08,11,15,55,25.00
2016,08,11,15,56,25.00
2016,08,11,15,57,25.10
2016,08,11,15,58,25.10
2016,08,11,15,59,25.00
2016,08,11,16,00,25.00
2016,08,11,16,01,25.10
2016,08,11,16,02,25.20
2016,08,11,16,03,25.20
2016,08,11,16,04,25.20
2016,08,11,16,05,25.10
2016,08,11,16,06,25.00
2016,08,11,16,07,25.00
2016,08,11,16,08,24.80
2016,08,11,16,09,24.80
2016,08,11,16,10,24.70
2016,08,11,16,11,24.70
2016,08,11,16,12,24.70
2016,08,11,16,13,24.60
2016,08,11,16,14,24.60
2016,08,11,16,15,24.50
2016,08,11,16,16,24.40
2016,08,11,16,17,24.40
2016,08,11,16,18,24.40
2016,08,11,16,19,24.40
2016,08,11,16,20,24.30
2016,08,11,16,21,24.30
2016,08,11,16,22,24.30
2016,08,11,16,23,24.40
2016,08,11,16,24,24.50
2016,08,11,16,25,24.50
2016,08,11,16,26,24.50
2016,08,11,16,27,24.50
2016,08,11,16,28,24.60
2016,08,11,16,29,24.60
2016,08,11,16,30,24.60
2016,08,11,16,31,24.60
2016,08,11,16,32,24.60
2016,08,11,16,33,24.60
2016,08,11,16,34,24.60
2016,08,11,16,35,24.60
2016,08,11,16,36,24.70
2016,08,11,16,37,24.80
2016,08,11,16,38,24.90
2016,08,11,16,39,24.90
2016,08,11,16,40,25.00
2016,08,11,16,41,25.00
2016,08,11,16,42,25.10
2016,08,11,16,43,25.10
2016,08,11,16,44,25.10
2016,08,11,16,45,25.10
2016,08,11,16,46,25.10
2016,08,11,16,47,25.10
2016,08,11,16,48,25.10
2016,08,11,16,49,25.20
2016,08,11,16,50,25.20
2016,08,11,16,51,25.00
2016,08,11,16,52,25.00
2016,08,11,16,53,24.90
2016,08,11,16,54,24.70
2016,08,11,16,55,24.60
2016,08,11,16,56,24.60
2016,08,11,16,57,24.70
2016,08,11,16,58,24.70
2016,08,11,16,59,24.60
2016,08,11,17,00,24.40
2016,08,11,17,01,24.30
2016,08,11,17,02,24.30
2016,08,11,17,03,24.30
2016,08,11,17,04,24.40
2016,08,11,17,05,24.40
2016,08,11,17,06,24.50
2016,08,11,17,07,24.50
2016,08,11,17,08,24.60
2016,08,11,17,09,24.60
2016,08,11,17,10,24.70
2016,08,11,17,11,24.70
2016,08,11,17,12,24.70
2016,08,11,17,13,24.60
2016,08,11,17,14,24.50
2016,08,11,17,15,24.40
2016,08,11,17,16,24.30
2016,08,11,17,17,24.30
2016,08,11,17,18,24.10
2016,08,11,17,19,24.10